Regional Weather Roundup
Issued by NWS

Home | Current Version | Previous Version | Graphics & Text | Print | Product List | Glossary Off
Versions: 1 2 3 4 5 6 7 8 9 10 11 12 13 14 15 16 17 18 19 20 21 22 23 24 25 26 27 28 29 30 31 32 33 34 35 36 37 38 39 40 41 42 43 44 45 46 47 48 49 50

895
ASUS43 KMPX 181410
RWRMN
WEATHER ROUNDUP FOR MINNESOTA
NATIONAL WEATHER SERVICE TWIN CITIES/CHANHASSEN MN
800 AM CST WED JAN 18 2017


NOTE: "FAIR" INDICATES FEW OR NO CLOUDS BELOW 12,000 FEET WITH NO
SIGNIFICANT WEATHER AND/OR OBSTRUCTIONS TO VISIBILITY. N/A MEANS
CURRENT SKY AND/OR WEATHER CONDITIONS ARE NOT AVAILABLE.

MNZ060>063-068>070-181500-
   Twin Cities Metro

CITY           SKY/WX    TMP DP  RH WIND       PRES   REMARKS
TWIN CITIES    CLOUDY    31  26  82 S9        29.90F WCI  23
ST PAUL        CLOUDY    26  25  96 SE8       29.93F FOG     WCI  18
CRYSTAL        CLOUDY    29  24  82 S13       29.87F WCI  19
BLAINE         PTCLDY    30  30 100 S13       29.87F WCI  20
LAKEVILLE      CLOUDY    27  27 100 S7        29.91F WCI  19
EDEN PRAIRIE   CLOUDY    30  26  85 S12       29.88F FOG     WCI  20
SOUTH ST PAUL  CLOUDY    28  26  92 S8        29.91F WCI  20
LAKE ELMO      FAIR      28  27  93 S10       29.91F WCI  19
$$
MNZ001>005-007-008-013>017-022>024-027-028-181500-
   Northwest Minnesota

CITY           SKY/WX    TMP DP  RH WIND       PRES   REMARKS
BEMIDJI        CLOUDY    26  20  78 SW6       29.72S WCI  19
HALLOCK        CLOUDY    18  16  93 S12       29.67S WCI   5
ROSEAU         CLOUDY    19  14  79 S7        29.68R WCI  10
WARROAD        CLOUDY    19  16  86 SW5       29.68F WCI  13
THIEF RVR FALL CLOUDY    21  17  84 SW13      29.72R WCI   9
CROOKSTON      CLOUDY    19  16  86 S12       29.74R WCI   7
FOSSTON        CLOUDY    21  18  86 S9        29.75R WCI  11
DETROIT LAKES  CLOUDY    27  21  80 SW8       29.78R WCI  18
MOORHEAD       CLOUDY    21  18  86 S9        29.80R WCI  11
PARK RAPIDS    CLOUDY    16  12  84 S7        29.76R WCI   6
MAHNOMEN       FAIR      23  19  83 S10       29.75R WCI  12
$$
MNZ006-009>011-018-025>026-181500-
   North Central Minnesota

CITY           SKY/WX    TMP DP  RH WIND       PRES   REMARKS
BAUDETTE       CLOUDY    18  14  84 CALM      29.68R
FLAG ISLAND    CLOUDY    12  10  92 SE8       29.66S WCI   1
INTL FALLS     CLOUDY    21  16  81 SW5       29.70R WCI  15
WASKISH        CLOUDY    16  12  86 CALM      29.70S
BIG FORK       CLOUDY    25  18  74 S6        29.72S WCI  18
LONGVILLE      CLOUDY    23  19  86 S5        29.76F WCI  17
GRAND RAPIDS   CLOUDY    23  20  88 S5        29.78R WCI  17
CRANE LAKE     CLOUDY    23  18  80 S3        29.74R
ORR            CLOUDY    19  16  86 CALM      29.71S
COOK           CLOUDY    25  19  80 S5        29.75R WCI  19
WALKER         FAIR      24  20  82 SW7       29.74S WCI  16
$$
MNZ012-019>021-037-181500-
   Northeast Minnesota

CITY           SKY/WX    TMP DP  RH WIND       PRES   REMARKS
DULUTH         CLOUDY    27  25  92 SW15      29.77R FOG     WCI  15
ELY            CLOUDY    25  19  80 SW9       29.74S WCI  15
HIBBING        CLOUDY    18  18 100 CALM      29.76R FOG
EVELETH        CLOUDY    23  20  89 SW6       29.77S WCI  16
DULUTH HARBOR  CLOUDY    28  25  86 CALM      29.82S
TWO HARBORS    CLOUDY    25  19  80 W5        29.77R HAZE    WCI  19
SILVER BAY     CLOUDY    23  21  93 SW5       29.76R FOG     WCI  17
GRAND MARAIS     N/A     31  26  82 W9        29.77R WCI  23
G MARAIS ARPRT CLOUDY    21  18  86 SW3       29.71R
$$
MNZ029>031-032-039>041-046>048-054>057-064-181500-
   West Central Minnesota

CITY           SKY/WX    TMP DP  RH WIND       PRES   REMARKS
FERGUS FALLS   CLEAR     21  18  86 S7        29.86S WCI  13
WHEATON        CLOUDY    23  19  86 E3        29.84R
MORRIS         CLOUDY    21  18  86 S9        29.82R WCI  11
ALEXANDRIA     CLOUDY    24  21  88 SW10      29.82R WCI  14
ELBOW LAKE     FAIR      19  18  93 S8        29.82S WCI   9
WADENA         CLOUDY    18  18 100 S7        29.78F WCI   8
GLENWOOD       CLOUDY    21  21 100 S9        29.83R WCI  11
APPLETON       CLOUDY    28  21  74 S5        29.83R WCI  23
ORTONVILLE     CLOUDY    27  19  74 CALM      29.82R
MADISON        CLOUDY    28  23  80 SW8       29.82F WCI  20
WILLMAR        FAIR      27  25  93 CALM      29.86R
$$
MNZ033>034-036-042>043-049>051-058-059-181500-
   Central Minnesota

CITY           SKY/WX    TMP DP  RH WIND       PRES   REMARKS
ST CLOUD       CLOUDY    22  21  96 S5        29.86R FOG     WCI  16
SAUK CENTRE    FAIR      23  21  92 S5        29.83R WCI  17
PAYNESVILLE    CLOUDY    26  26 100 SW5       29.86R WCI  20
AITKIN         CLOUDY    27  19  74 S7        29.79F WCI  19
PINE RIVER     CLOUDY    16  12  86 CALM      29.83S FOG
BRAINERD       CLOUDY    23  20  88 S9        29.82R FOG     WCI  13
STAPLES        CLOUDY    19  19 100 S6        29.80S WCI  11
LONG PRAIRIE   FAIR      21  19  93 S6        29.83F FOG     WCI  14
LITTLE FALLS   CLOUDY    19  18  93 SE5       29.85S WCI  13
LITCHFIELD     CLOUDY    27  25  93 SW5       29.86R WCI  21
BUFFALO        CLOUDY    28  24  88 S7        29.90R WCI  20
MAPLE LAKE     CLOUDY    27  26  94 S5        29.88R WCI  22
HUTCHINSON     CLOUDY    25  24  96 S6        29.88F WCI  18
$$
MNZ037-044-045-052-053-181500-
   East Central Minnesota

CITY           SKY/WX    TMP DP  RH WIND       PRES   REMARKS
PRINCETON      CLOUDY    27  25  93 S3        29.87R FOG
MORA           CLOUDY    23  21  93 CALM      29.89R FOG
CAMBRIDGE      CLOUDY    28  21  74 S7        29.87R HAZE    WCI  21
RUSH CITY      CLOUDY    25  23  93 S5        29.89R FOG     WCI  19
MOOSE LAKE     PTCLDY    27  23  86 SW10      29.81S WCI  17
HINCKLEY       FAIR      27  25  93 S6        29.86S FOG     WCI  20
CLOQUET        CLOUDY    27  23  86 SW12G21   29.79R WCI  16
MCGREGOR       CLOUDY    27  23  86 SW7       29.80S WCI  19
$$
MNZ071>073-080-081-089-090-097-098-181500-
   Southwest Minnesota

CITY           SKY/WX    TMP DP  RH WIND       PRES   REMARKS
MONTEVIDEO     CLOUDY    27  25  93 SW9       29.85S WCI  17
GRANITE FALLS  CLOUDY    24  21  89 S10       29.86F WCI  13
CANBY            N/A     32  25  76 SW7       29.83F WCI  26
MARSHALL       CLOUDY    30  25  81 NW6       29.86R WCI  24
REDWOOD FALLS  CLOUDY    24  20  84 S6        29.87F WCI  17
OLIVIA         CLOUDY    27  23  86 S10       29.85F WCI  17
PIPESTONE      CLOUDY    25  21  86 SW8       29.86F WCI  16
WINDOM         CLOUDY    30  27  86 SW7       29.88S WCI  23
WORTHINGTON    CLOUDY    27  25  92 SW15      29.89F WCI  15
JACKSON        CLOUDY    28  27  93 S9        29.91S WCI  20
TRACY          CLOUDY    32  28  84 SW22      29.84S WCI  19
SLAYTON        CLOUDY    27  25  91 SW6       29.87R WCI  20
$$
MNZ065>067-074>077-082>085-091>093-181500-
   South Central Minnesota

CITY           SKY/WX    TMP DP  RH WIND       PRES   REMARKS
MANKATO        CLOUDY    26  25  96 S9        29.92F FOG     WCI  17
NEW ULM        CLOUDY    25  21  86 S9        29.89F WCI  15
ST JAMES       CLOUDY    27  25  93 S7        29.92S WCI  19
FAIRMONT       CLOUDY    28  25  88 S12       29.94F WCI  18
GLENCOE        CLOUDY    28  27  98 S10       29.87F WCI  18
FARIBAULT      CLOUDY    28  27  93 S6        29.94F FOG     WCI  22
OWATONNA       CLOUDY    28  25  86 S10       29.94F FOG     WCI  19
WASECA         CLOUDY    28  27  93 S9        29.95F FOG     WCI  20
ALBERT LEA       N/A     28  28 100 S5        29.95F FOG     WCI  23
$$
MNZ078>079-086>088-094>096-181500-
   Southeast Minnesota

CITY           SKY/WX    TMP DP  RH WIND       PRES   REMARKS
ROCHESTER      CLOUDY    25  25 100 S12       29.97F FOG     WCI  14
RED WING       CLOUDY    28  23  80 S5        29.96F WCI  23
STANTON        CLOUDY    29  25  85 S12       29.92F WCI  19
DODGE CENTER   CLOUDY    27  25  93 CALM      29.95F FOG
WINONA         CLEAR     30  28  93 CALM      30.02F
AUSTIN         FOG       27  27 100 S7        29.97F VSB 3/4 WCI  19
PRESTON        CLOUDY    26  25  96 S15       29.99F FOG     WCI  13
$$
ABBREVIATIONS USED IN REMARKS
   TC - TEMPERATURES IN CELSIUS
  WCI - WIND CHILL INDEX
   HX - HEAT INDEX
  VSB - VISIBILITY
$$




USA.gov is the U.S. government's official web portal to all federal, state and local government web resources and services.